User: anonymous   Login
Location: Unspecified
(0.0000°N, 0.0000°E)
Time: 05:50:32
(UTC+02:00)
Language:

SJ-6B - Orbit

View from above orbital plane
View from above orbital plane
View from above satellite
View from above satellite

Ground track
Ground track

The orbit data is extracted from the following two-line orbital elements,

1 28415U 04035C   16179.94523661 +.00000824 +00000-0 +59895-4 0  9996
2 28415 097.7762 200.6596 0051616 242.0455 117.5542 15.05747234645265
Epoch (UTC): 27 June 2016 22:41:08
Eccentricity: 0.0051616
inclination: 97.7762°
perigee height: 513 km
apogee height: 585 km
right ascension of ascending node: 200.6596°
argument of perigee: 242.0455°
revolutions per day: 15.05747234
mean anomaly at epoch: 117.5542°
orbit number at epoch: 64526

The dashed part of the orbit path shows where the satellite is in the earth's shadow,  

DLR